{"data":{"norad_id":58038,"epoch":"2026-09-20T08:16:10.979328Z","epoch_age_seconds":151807,"freshness":"FRESH","line1":"1 58038U 23156L   26263.34457152  .00000484  00000+0  25462-4 0  9999","line2":"2 58038  53.1601 250.3031 0000901  79.3793 280.7311 15.34389475166121","mean_motion":15.34389475,"eccentricity":9.01e-5,"inclination_deg":53.1601,"raan_deg":250.3031,"arg_perigee_deg":79.3793,"mean_anomaly_deg":280.7311,"bstar":2.5462e-5,"rev_number":16612,"period_min":93.848401821187,"perigee_km":462.11816037975,"apogee_km":463.35088542818,"semimajor_km":6840.871522904,"source":"CELESTRAK","updated_at":"2026-09-21T09:00:33.759965Z"}}